Flag for U.S.A. Weather past 2 weeks in Fairbanks, Alaska, U.S.A.

Now
55 °F

Low clouds.


Feels Like: 55 °F
Forecast: 54 / 67 °F
Wind: 5 mph from South

Location: Wainwright U. S. Army Airfield

Current Time: Jul 1, 2015 at 9:11:21 AM

Latest Report: Jul 1, 2015 at 8:55 AM


Visibility: 7 mi

Pressure: 30.05 "Hg

Humidity: 88%

Dew point: 52 °F

Location of FairbanksLocation

Historic Weather in Fairbanks — Graph

°F

Fairbanks temperature yesterday

Maximum temperature yesterday: 84 °F (at 8:55 PM)
Minimum temperature yesterday: 57 °F (at 6:55 AM)
Average temperature yesterday: 65 °F

Past Weeks' High & Low Weather Summary

 TemperatureHumidityPressure
High87 °F (Jun 20, 5:56 PM)94% (Jul 1, 6:55 AM)30.11 "Hg (Jul 1, 6:55 AM)
Low48 °F (Jun 17, 4:56 AM)16% (Jun 17, 4:55 PM)29.62 "Hg (Jun 25, 6:55 PM)
Average67 °F55%29.88 "Hg
* Reported Jun 16 7:55 AM — Jul 1 7:55 AM, Fairbanks, Weather by CustomWeather, © 2015

Note: Actual official high and low records may vary slightly from our data, if they occured in-between our weather recording intervals... More about our weather records

Advertising

Fairbanks weather history for previous 24 hours

 ConditionsComfort  
Time TempWeatherWind HumidityBarometerVisibility
7:55 AM
Wed, Jul 1
55 °FPartly sunny.5 mph94%30.04 "Hg7 mi
6:55 AM55 °FScattered showers. Mostly cloudy.5 mph94%30.04 "Hg7 mi
5:56 AM56 °FMostly cloudy.5 mph90%30.03 "Hg10 mi
4:56 AM56 °FOvercast.5 mph90%30.03 "Hg10 mi
3:56 AM56 °FOvercast.3 mph90%30.04 "Hg10 mi
2:56 AM56 °FLight rain. Mostly cloudy.No wind90%30.03 "Hg10 mi
1:56 AM57 °FLight rain. More clouds than sun.3 mph83%30.03 "Hg9 mi
12:56 AM57 °FMostly cloudy.9 mph87%30.03 "Hg10 mi
11:56 PM
Tue, Jun 30
58 °FMore clouds than sun.9 mph87%30.03 "Hg10 mi
10:56 PM60 °FOvercast.9 mph78%30.01 "Hg10 mi
9:56 PM62 °FCloudy.14 mph67%29.99 "Hg10 mi
8:55 PM84 °FPartly sunny.14 mph31%29.97 "Hg7 mi
7:55 PM70 °FBroken clouds.13 mph46%29.96 "Hg7 mi
6:55 PM72 °FBroken clouds.6 mph41%29.96 "Hg25 mi
5:55 PM72 °FScattered clouds.7 mph41%29.95 "Hg25 mi
4:55 PM72 °FBroken clouds.3 mph38%29.96 "Hg25 mi
3:55 PM70 °FBroken clouds.3 mph43%29.98 "Hg25 mi
2:55 PM63 °FLight rain. Broken clouds.3 mph68%30.00 "Hg25 mi
1:55 PM66 °FScattered showers. Broken clouds.13 mph60%30.01 "Hg25 mi
12:55 PM64 °FSprinkles. Partly sunny.6 mph56%30.01 "Hg25 mi
11:55 AM66 °FSprinkles. Mostly cloudy.7 mph56%30.01 "Hg25 mi
10:55 AM66 °FBroken clouds.9 mph49%30.00 "Hg25 mi
9:55 AM66 °FPartly sunny.9 mph49%29.99 "Hg25 mi
Weather by CustomWeather, © 2015

See weather overviewHow to use our weather pages